CZ-3B R/B (49259 NORAD) Tracking and Keplerian Element Data

This shows tracking and keplerian element data for the satellite.

Feedback or suggestion? Click here.




ElementValue
Catalog49259
NameCZ-3B R/B
Epoch Orbit37
Epoch Day287.0986362
Epoch Year2021
RAAN75.2591
Inclination51.3696
Eccentricity0.7493642
Argument of Perigee228.3234
Mean Anonmoly38.1616
Mean Motion2.03878633
Decay Rate5.353E-05
L11 49259U 21087B 21287.09863620 .00005353 00000-0 46805-3 0 9993
L22 49259 51.3696 75.2591 7493642 228.3234 38.1616 2.03878633 374

Live tracking and technical data element details for CZ-3B R/B (NORAD 49259). CZ-3B R/B can be tracked NOW for your location showing map with azimuth and elevation plus other details from your city location.

Track the satellite on the map from your city or location and see movement details for azimuth, elevation, latitude, longitude, range, height, and movement on the map or in text.







IsCatalogInMostPopularTable: catalog: 49259, numindb: 9
Update: records affected: 1



GetName: 49259 CZ-3B R/B

Hit Count: updated at: Tue, 19 Oct 2021 09:19:13 GMT